Year,Month,Day,Hour,Minute,Value (Times are PST for temperature in C)
2013,05,05,00,00,12.40
2013,05,05,00,01,12.40
2013,05,05,00,02,12.40
2013,05,05,00,03,12.40
2013,05,05,00,04,12.40
2013,05,05,00,05,12.30
2013,05,05,00,06,12.30
2013,05,05,00,07,12.30
2013,05,05,00,08,12.30
2013,05,05,00,09,12.30
2013,05,05,00,10,12.20
2013,05,05,00,11,12.20
2013,05,05,00,12,12.20
2013,05,05,00,13,12.20
2013,05,05,00,14,12.10
2013,05,05,00,15,12.10
2013,05,05,00,16,12.10
2013,05,05,00,17,12.00
2013,05,05,00,18,12.00
2013,05,05,00,19,12.00
2013,05,05,00,20,11.90
2013,05,05,00,21,11.90
2013,05,05,00,22,11.90
2013,05,05,00,23,11.80
2013,05,05,00,24,11.80
2013,05,05,00,25,11.80
2013,05,05,00,26,11.80
2013,05,05,00,27,11.80
2013,05,05,00,28,11.70
2013,05,05,00,29,11.70
2013,05,05,00,30,11.70
2013,05,05,00,31,11.70
2013,05,05,00,32,11.70
2013,05,05,00,33,11.60
2013,05,05,00,34,11.60
2013,05,05,00,35,11.60
2013,05,05,00,36,11.60
2013,05,05,00,37,11.50
2013,05,05,00,38,11.50
2013,05,05,00,39,11.50
2013,05,05,00,40,11.40
2013,05,05,00,41,11.40
2013,05,05,00,42,11.40
2013,05,05,00,43,11.40
2013,05,05,00,44,11.40
2013,05,05,00,45,11.40
2013,05,05,00,46,11.30
2013,05,05,00,47,11.30
2013,05,05,00,48,11.30
2013,05,05,00,49,11.30
2013,05,05,00,50,11.30
2013,05,05,00,51,11.30
2013,05,05,00,52,11.30
2013,05,05,00,53,11.30
2013,05,05,00,54,11.30
2013,05,05,00,55,11.30
2013,05,05,00,56,11.30
2013,05,05,00,57,11.30
2013,05,05,00,58,11.20
2013,05,05,00,59,11.20
2013,05,05,01,00,11.20
2013,05,05,01,01,11.20
2013,05,05,01,02,11.20
2013,05,05,01,03,11.10
2013,05,05,01,04,11.10
2013,05,05,01,05,11.10
2013,05,05,01,06,11.10
2013,05,05,01,07,11.00
2013,05,05,01,08,11.00
2013,05,05,01,09,11.00
2013,05,05,01,10,11.00
2013,05,05,01,11,10.90
2013,05,05,01,12,10.90
2013,05,05,01,13,10.90
2013,05,05,01,14,10.90
2013,05,05,01,15,10.90
2013,05,05,01,16,10.90
2013,05,05,01,17,10.90
2013,05,05,01,18,10.80
2013,05,05,01,19,10.80
2013,05,05,01,20,10.80
2013,05,05,01,21,10.80
2013,05,05,01,22,10.80
2013,05,05,01,23,10.80
2013,05,05,01,24,10.80
2013,05,05,01,25,10.80
2013,05,05,01,26,10.80
2013,05,05,01,27,10.80
2013,05,05,01,28,10.70
2013,05,05,01,29,10.70
2013,05,05,01,30,10.70
2013,05,05,01,31,10.70
2013,05,05,01,32,10.70
2013,05,05,01,33,10.70
2013,05,05,01,34,10.70
2013,05,05,01,35,10.70
2013,05,05,01,36,10.60
2013,05,05,01,37,10.60
2013,05,05,01,38,10.60
2013,05,05,01,39,10.60
2013,05,05,01,40,10.60
2013,05,05,01,41,10.60
2013,05,05,01,42,10.60
2013,05,05,01,43,10.60
2013,05,05,01,44,10.60
2013,05,05,01,45,10.60
2013,05,05,01,46,10.50
2013,05,05,01,47,10.50
2013,05,05,01,48,10.50
2013,05,05,01,49,10.50
2013,05,05,01,50,10.50
2013,05,05,01,51,10.50
2013,05,05,01,52,10.50
2013,05,05,01,53,10.40
2013,05,05,01,54,10.40
2013,05,05,01,55,10.40
2013,05,05,01,56,10.40
2013,05,05,01,57,10.40
2013,05,05,01,58,10.40
2013,05,05,01,59,10.40
2013,05,05,02,00,10.40
2013,05,05,02,01,10.40
2013,05,05,02,02,10.40
2013,05,05,02,03,10.30
2013,05,05,02,04,10.30
2013,05,05,02,05,10.30
2013,05,05,02,06,10.30
2013,05,05,02,07,10.30
2013,05,05,02,08,10.30
2013,05,05,02,09,10.30
2013,05,05,02,10,10.30
2013,05,05,02,11,10.30
2013,05,05,02,12,10.20
2013,05,05,02,13,10.20
2013,05,05,02,14,10.20
2013,05,05,02,15,10.20
2013,05,05,02,16,10.10
2013,05,05,02,17,10.10
2013,05,05,02,18,10.10
2013,05,05,02,19,10.10
2013,05,05,02,20,10.00
2013,05,05,02,21,10.00
2013,05,05,02,22,10.00
2013,05,05,02,23,10.00
2013,05,05,02,24,10.00
2013,05,05,02,25,10.00
2013,05,05,02,26,10.00
2013,05,05,02,27,10.00
2013,05,05,02,28,10.10
2013,05,05,02,29,10.10
2013,05,05,02,30,10.10
2013,05,05,02,31,10.00
2013,05,05,02,32,10.00
2013,05,05,02,33,10.00
2013,05,05,02,34,10.00
2013,05,05,02,35,10.00
2013,05,05,02,36,10.00
2013,05,05,02,37,9.90
2013,05,05,02,38,9.90
2013,05,05,02,39,9.90
2013,05,05,02,40,9.90
2013,05,05,02,41,9.90
2013,05,05,02,42,9.90
2013,05,05,02,43,9.90
2013,05,05,02,44,10.00
2013,05,05,02,45,10.00
2013,05,05,02,46,10.00
2013,05,05,02,47,10.00
2013,05,05,02,48,10.00
2013,05,05,02,49,10.10
2013,05,05,02,50,10.10
2013,05,05,02,51,10.10
2013,05,05,02,52,10.20
2013,05,05,02,53,10.20
2013,05,05,02,54,10.20
2013,05,05,02,55,10.20
2013,05,05,02,56,10.20
2013,05,05,02,57,10.20
2013,05,05,02,58,10.30
2013,05,05,02,59,10.30
2013,05,05,03,00,10.30
2013,05,05,03,01,10.30
2013,05,05,03,02,10.30
2013,05,05,03,03,10.20
2013,05,05,03,04,10.20
2013,05,05,03,05,10.20
2013,05,05,03,06,10.20
2013,05,05,03,07,10.10
2013,05,05,03,08,10.10
2013,05,05,03,09,10.00
2013,05,05,03,10,10.00
2013,05,05,03,11,9.90
2013,05,05,03,12,9.80
2013,05,05,03,13,9.80
2013,05,05,03,14,9.80
2013,05,05,03,15,9.70
2013,05,05,03,16,9.70
2013,05,05,03,17,9.70
2013,05,05,03,18,9.60
2013,05,05,03,19,9.60
2013,05,05,03,20,9.60
2013,05,05,03,21,9.60
2013,05,05,03,22,9.60
2013,05,05,03,23,9.60
2013,05,05,03,24,9.60
2013,05,05,03,25,9.60
2013,05,05,03,26,9.60
2013,05,05,03,27,9.60
2013,05,05,03,28,9.60
2013,05,05,03,29,9.60
2013,05,05,03,30,9.60
2013,05,05,03,31,9.60
2013,05,05,03,32,9.70
2013,05,05,03,33,9.70
2013,05,05,03,34,9.80
2013,05,05,03,35,9.90
2013,05,05,03,36,10.00
2013,05,05,03,37,10.20
2013,05,05,03,38,10.50
2013,05,05,03,39,10.70
2013,05,05,03,40,11.00
2013,05,05,03,41,11.40
2013,05,05,03,42,11.70
2013,05,05,03,43,12.00
2013,05,05,03,44,12.20
2013,05,05,03,45,12.50
2013,05,05,03,46,12.70
2013,05,05,03,47,12.80
2013,05,05,03,48,12.70
2013,05,05,03,49,12.60
2013,05,05,03,50,12.50
2013,05,05,03,51,12.30
2013,05,05,03,52,12.20
2013,05,05,03,53,12.10
2013,05,05,03,54,12.00
2013,05,05,03,55,11.90
2013,05,05,03,56,11.80
2013,05,05,03,57,11.80
2013,05,05,03,58,11.90
2013,05,05,03,59,11.90
2013,05,05,04,00,11.90
2013,05,05,04,01,11.90
2013,05,05,04,02,11.90
2013,05,05,04,03,11.80
2013,05,05,04,04,11.80
2013,05,05,04,05,11.60
2013,05,05,04,06,11.50
2013,05,05,04,07,11.40
2013,05,05,04,08,11.30
2013,05,05,04,09,11.20
2013,05,05,04,10,11.10
2013,05,05,04,11,11.10
2013,05,05,04,12,11.00
2013,05,05,04,13,10.90
2013,05,05,04,14,10.90
2013,05,05,04,15,10.90
2013,05,05,04,16,10.90
2013,05,05,04,17,10.80
2013,05,05,04,18,10.80
2013,05,05,04,19,10.80
2013,05,05,04,20,10.70
2013,05,05,04,21,10.70
2013,05,05,04,22,10.70
2013,05,05,04,23,10.60
2013,05,05,04,24,10.60
2013,05,05,04,25,10.50
2013,05,05,04,26,10.50
2013,05,05,04,27,10.40
2013,05,05,04,28,10.40
2013,05,05,04,29,10.40
2013,05,05,04,30,10.30
2013,05,05,04,31,10.30
2013,05,05,04,32,10.30
2013,05,05,04,33,10.30
2013,05,05,04,34,10.20
2013,05,05,04,35,10.20
2013,05,05,04,36,10.20
2013,05,05,04,37,10.10
2013,05,05,04,38,10.10
2013,05,05,04,39,10.00
2013,05,05,04,40,10.00
2013,05,05,04,41,9.90
2013,05,05,04,42,9.90
2013,05,05,04,43,9.90
2013,05,05,04,44,9.80
2013,05,05,04,45,9.80
2013,05,05,04,46,9.80
2013,05,05,04,47,9.80
2013,05,05,04,48,9.70
2013,05,05,04,49,9.70
2013,05,05,04,50,9.70
2013,05,05,04,51,9.70
2013,05,05,04,52,9.70
2013,05,05,04,53,9.70
2013,05,05,04,54,9.70
2013,05,05,04,55,9.70
2013,05,05,04,56,9.70
2013,05,05,04,57,9.70
2013,05,05,04,58,9.70
2013,05,05,04,59,9.70
2013,05,05,05,00,9.70
2013,05,05,05,01,9.70
2013,05,05,05,02,9.70
2013,05,05,05,03,9.70
2013,05,05,05,04,9.70
2013,05,05,05,05,9.70
2013,05,05,05,06,9.70
2013,05,05,05,07,9.70
2013,05,05,05,08,9.70
2013,05,05,05,09,9.70
2013,05,05,05,10,9.70
2013,05,05,05,11,9.70
2013,05,05,05,12,9.70
2013,05,05,05,13,9.70
2013,05,05,05,14,9.70
2013,05,05,05,15,9.60
2013,05,05,05,16,9.60
2013,05,05,05,17,9.60
2013,05,05,05,18,9.50
2013,05,05,05,19,9.50
2013,05,05,05,20,9.50
2013,05,05,05,21,9.40
2013,05,05,05,22,9.40
2013,05,05,05,23,9.40
2013,05,05,05,24,9.40
2013,05,05,05,25,9.40
2013,05,05,05,26,9.40
2013,05,05,05,27,9.40
2013,05,05,05,28,9.40
2013,05,05,05,29,9.40
2013,05,05,05,30,9.40
2013,05,05,05,31,9.40
2013,05,05,05,32,9.40
2013,05,05,05,33,9.40
2013,05,05,05,34,9.30
2013,05,05,05,35,9.30
2013,05,05,05,36,9.20
2013,05,05,05,37,9.20
2013,05,05,05,38,9.20
2013,05,05,05,39,9.20
2013,05,05,05,40,9.10
2013,05,05,05,41,9.10
2013,05,05,05,42,9.10
2013,05,05,05,43,9.10
2013,05,05,05,44,9.10
2013,05,05,05,45,9.10
2013,05,05,05,46,9.00
2013,05,05,05,47,9.00
2013,05,05,05,48,9.00
2013,05,05,05,49,9.00
2013,05,05,05,50,8.90
2013,05,05,05,51,8.90
2013,05,05,05,52,8.90
2013,05,05,05,53,8.90
2013,05,05,05,54,8.90
2013,05,05,05,55,8.90
2013,05,05,05,56,8.90
2013,05,05,05,57,8.90
2013,05,05,05,58,8.90
2013,05,05,05,59,8.90
2013,05,05,06,00,8.90
2013,05,05,06,01,8.90
2013,05,05,06,02,8.90
2013,05,05,06,03,8.90
2013,05,05,06,04,8.90
2013,05,05,06,05,8.90
2013,05,05,06,06,8.80
2013,05,05,06,07,8.80
2013,05,05,06,08,8.90
2013,05,05,06,09,8.90
2013,05,05,06,10,8.80
2013,05,05,06,11,8.80
2013,05,05,06,12,8.80
2013,05,05,06,13,8.80
2013,05,05,06,14,8.80
2013,05,05,06,15,8.90
2013,05,05,06,16,8.90
2013,05,05,06,17,8.90
2013,05,05,06,18,8.90
2013,05,05,06,19,8.90
2013,05,05,06,20,8.90
2013,05,05,06,21,9.00
2013,05,05,06,22,9.00
2013,05,05,06,23,9.00
2013,05,05,06,24,9.00
2013,05,05,06,25,9.00
2013,05,05,06,26,9.10
2013,05,05,06,27,9.10
2013,05,05,06,28,9.10
2013,05,05,06,29,9.10
2013,05,05,06,30,9.10
2013,05,05,06,31,9.10
2013,05,05,06,32,9.10
2013,05,05,06,33,9.10
2013,05,05,06,34,9.10
2013,05,05,06,35,9.20
2013,05,05,06,36,9.20
2013,05,05,06,37,9.30
2013,05,05,06,38,9.30
2013,05,05,06,39,9.30
2013,05,05,06,40,9.40
2013,05,05,06,41,9.40
2013,05,05,06,42,9.40
2013,05,05,06,43,9.40
2013,05,05,06,44,9.40
2013,05,05,06,45,9.40
2013,05,05,06,46,9.40
2013,05,05,06,47,9.40
2013,05,05,06,48,9.40
2013,05,05,06,49,9.40
2013,05,05,06,50,9.40
2013,05,05,06,51,9.50
2013,05,05,06,52,9.50
2013,05,05,06,53,9.50
2013,05,05,06,54,9.60
2013,05,05,06,55,9.60
2013,05,05,06,56,9.70
2013,05,05,06,57,9.70
2013,05,05,06,58,9.80
2013,05,05,06,59,9.90
2013,05,05,07,00,10.00
2013,05,05,07,01,10.10
2013,05,05,07,02,10.20
2013,05,05,07,03,10.30
2013,05,05,07,04,10.50
2013,05,05,07,05,10.60
2013,05,05,07,06,10.70
2013,05,05,07,07,10.70
2013,05,05,07,08,10.80
2013,05,05,07,09,10.80
2013,05,05,07,10,10.80
2013,05,05,07,11,10.90
2013,05,05,07,12,10.90
2013,05,05,07,13,11.00
2013,05,05,07,14,11.00
2013,05,05,07,15,11.10
2013,05,05,07,16,11.10
2013,05,05,07,17,11.10
2013,05,05,07,18,11.20
2013,05,05,07,19,11.20
2013,05,05,07,20,11.20
2013,05,05,07,21,11.30
2013,05,05,07,22,11.30
2013,05,05,07,23,11.40
2013,05,05,07,24,11.50
2013,05,05,07,25,11.60
2013,05,05,07,26,11.70
2013,05,05,07,27,11.90
2013,05,05,07,28,12.00
2013,05,05,07,29,12.20
2013,05,05,07,30,12.30
2013,05,05,07,31,12.50
2013,05,05,07,32,12.60
2013,05,05,07,33,12.80
2013,05,05,07,34,12.90
2013,05,05,07,35,13.10
2013,05,05,07,36,13.30
2013,05,05,07,37,13.40
2013,05,05,07,38,13.60
2013,05,05,07,39,13.80
2013,05,05,07,40,14.00
2013,05,05,07,41,14.10
2013,05,05,07,42,14.30
2013,05,05,07,43,14.40
2013,05,05,07,44,14.50
2013,05,05,07,45,14.70
2013,05,05,07,46,14.80
2013,05,05,07,47,14.80
2013,05,05,07,48,14.80
2013,05,05,07,49,14.90
2013,05,05,07,50,14.90
2013,05,05,07,51,14.80
2013,05,05,07,52,14.80
2013,05,05,07,53,14.70
2013,05,05,07,54,14.60
2013,05,05,07,55,14.50
2013,05,05,07,56,14.50
2013,05,05,07,57,14.40
2013,05,05,07,58,14.40
2013,05,05,07,59,14.30
2013,05,05,08,00,14.30
2013,05,05,08,01,14.30
2013,05,05,08,02,14.30
2013,05,05,08,03,14.30
2013,05,05,08,04,14.30
2013,05,05,08,05,14.40
2013,05,05,08,06,14.40
2013,05,05,08,07,14.50
2013,05,05,08,08,14.50
2013,05,05,08,09,14.60
2013,05,05,08,10,14.60
2013,05,05,08,11,14.70
2013,05,05,08,12,14.70
2013,05,05,08,13,14.80
2013,05,05,08,14,14.90
2013,05,05,08,15,15.00
2013,05,05,08,16,15.10
2013,05,05,08,17,15.30
2013,05,05,08,18,15.40
2013,05,05,08,19,15.60
2013,05,05,08,20,15.80
2013,05,05,08,21,15.90
2013,05,05,08,22,16.10
2013,05,05,08,23,16.20
2013,05,05,08,24,16.30
2013,05,05,08,25,16.40
2013,05,05,08,26,16.50
2013,05,05,08,27,16.60
2013,05,05,08,28,16.70
2013,05,05,08,29,16.80
2013,05,05,08,30,16.90
2013,05,05,08,31,17.00
2013,05,05,08,32,17.10
2013,05,05,08,33,17.20
2013,05,05,08,34,17.30
2013,05,05,08,35,17.40
2013,05,05,08,36,17.40
2013,05,05,08,37,17.50
2013,05,05,08,38,17.60
2013,05,05,08,39,17.70
2013,05,05,08,40,17.70
2013,05,05,08,41,17.70
2013,05,05,08,42,17.80
2013,05,05,08,43,17.80
2013,05,05,08,44,17.90
2013,05,05,08,45,17.90
2013,05,05,08,46,17.90
2013,05,05,08,47,18.00
2013,05,05,08,48,18.00
2013,05,05,08,49,18.00
2013,05,05,08,50,18.00
2013,05,05,08,51,18.00
2013,05,05,08,52,18.00
2013,05,05,08,53,17.90
2013,05,05,08,54,18.00
2013,05,05,08,55,18.00
2013,05,05,08,56,18.10
2013,05,05,08,57,18.10
2013,05,05,08,58,18.10
2013,05,05,08,59,18.20
2013,05,05,09,00,18.20
2013,05,05,09,01,18.30
2013,05,05,09,02,18.40
2013,05,05,09,03,18.40
2013,05,05,09,04,18.40
2013,05,05,09,05,18.40
2013,05,05,09,06,18.40
2013,05,05,09,07,18.40
2013,05,05,09,08,18.40
2013,05,05,09,09,18.40
2013,05,05,09,10,18.50
2013,05,05,09,11,18.60
2013,05,05,09,12,18.60
2013,05,05,09,13,18.60
2013,05,05,09,14,18.70
2013,05,05,09,15,18.60
2013,05,05,09,16,18.60
2013,05,05,09,17,18.60
2013,05,05,09,18,18.60
2013,05,05,09,19,18.60
2013,05,05,09,20,18.60
2013,05,05,09,21,18.60
2013,05,05,09,22,18.70
2013,05,05,09,23,18.70
2013,05,05,09,24,18.80
2013,05,05,09,25,18.90
2013,05,05,09,26,18.90
2013,05,05,09,27,18.90
2013,05,05,09,28,18.90
2013,05,05,09,29,19.00
2013,05,05,09,30,19.00
2013,05,05,09,31,19.00
2013,05,05,09,32,19.00
2013,05,05,09,33,19.00
2013,05,05,09,34,19.00
2013,05,05,09,35,19.10
2013,05,05,09,36,19.20
2013,05,05,09,37,19.30
2013,05,05,09,38,19.30
2013,05,05,09,39,19.40
2013,05,05,09,40,19.50
2013,05,05,09,41,19.50
2013,05,05,09,42,19.50
2013,05,05,09,43,19.50
2013,05,05,09,44,19.50
2013,05,05,09,45,19.50
2013,05,05,09,46,19.50
2013,05,05,09,47,19.60
2013,05,05,09,48,19.60
2013,05,05,09,49,19.60
2013,05,05,09,50,19.70
2013,05,05,09,51,19.70
2013,05,05,09,52,19.80
2013,05,05,09,53,19.90
2013,05,05,09,54,19.90
2013,05,05,09,55,20.00
2013,05,05,09,56,20.10
2013,05,05,09,57,20.20
2013,05,05,09,58,20.20
2013,05,05,09,59,20.20
2013,05,05,10,00,20.30
2013,05,05,10,01,20.30
2013,05,05,10,02,20.40
2013,05,05,10,03,20.40
2013,05,05,10,04,20.50
2013,05,05,10,05,20.60
2013,05,05,10,06,20.50
2013,05,05,10,07,20.50
2013,05,05,10,08,20.40
2013,05,05,10,09,20.40
2013,05,05,10,10,20.40
2013,05,05,10,11,20.30
2013,05,05,10,12,20.40
2013,05,05,10,13,20.40
2013,05,05,10,14,20.40
2013,05,05,10,15,20.40
2013,05,05,10,16,20.50
2013,05,05,10,17,20.50
2013,05,05,10,18,20.50
2013,05,05,10,19,20.60
2013,05,05,10,20,20.60
2013,05,05,10,21,20.50
2013,05,05,10,22,20.50
2013,05,05,10,23,20.50
2013,05,05,10,24,20.50
2013,05,05,10,25,20.60
2013,05,05,10,26,20.60
2013,05,05,10,27,20.60
2013,05,05,10,28,20.60
2013,05,05,10,29,20.60
2013,05,05,10,30,20.60
2013,05,05,10,31,20.60
2013,05,05,10,32,20.70
2013,05,05,10,33,20.80
2013,05,05,10,34,20.90
2013,05,05,10,35,20.90
2013,05,05,10,36,21.00
2013,05,05,10,37,21.10
2013,05,05,10,38,21.10
2013,05,05,10,39,21.20
2013,05,05,10,40,21.20
2013,05,05,10,41,21.20
2013,05,05,10,42,21.20
2013,05,05,10,43,21.20
2013,05,05,10,44,21.20
2013,05,05,10,45,21.20
2013,05,05,10,46,21.20
2013,05,05,10,47,21.20
2013,05,05,10,48,21.20
2013,05,05,10,49,21.10
2013,05,05,10,50,21.10
2013,05,05,10,51,21.00
2013,05,05,10,52,21.00
2013,05,05,10,53,21.10
2013,05,05,10,54,21.10
2013,05,05,10,55,21.10
2013,05,05,10,56,21.10
2013,05,05,10,57,21.20
2013,05,05,10,58,21.20
2013,05,05,10,59,21.30
2013,05,05,11,00,21.30
2013,05,05,11,01,21.40
2013,05,05,11,02,21.50
2013,05,05,11,03,21.60
2013,05,05,11,04,21.60
2013,05,05,11,05,21.60
2013,05,05,11,06,21.60
2013,05,05,11,07,21.60
2013,05,05,11,08,21.50
2013,05,05,11,09,21.40
2013,05,05,11,10,21.40
2013,05,05,11,11,21.30
2013,05,05,11,12,21.30
2013,05,05,11,13,21.30
2013,05,05,11,14,21.40
2013,05,05,11,15,21.40
2013,05,05,11,16,21.40
2013,05,05,11,17,21.40
2013,05,05,11,18,21.50
2013,05,05,11,19,21.60
2013,05,05,11,20,21.60
2013,05,05,11,21,21.60
2013,05,05,11,22,21.60
2013,05,05,11,23,21.60
2013,05,05,11,24,21.60
2013,05,05,11,25,21.60
2013,05,05,11,26,21.70
2013,05,05,11,27,21.70
2013,05,05,11,28,21.70
2013,05,05,11,29,21.70
2013,05,05,11,30,21.70
2013,05,05,11,31,21.70
2013,05,05,11,32,21.70
2013,05,05,11,33,21.70
2013,05,05,11,34,21.80
2013,05,05,11,35,21.80
2013,05,05,11,36,21.80
2013,05,05,11,37,21.80
2013,05,05,11,38,21.80
2013,05,05,11,39,21.80
2013,05,05,11,40,21.80
2013,05,05,11,41,21.80
2013,05,05,11,42,21.80
2013,05,05,11,43,21.80
2013,05,05,11,44,21.80
2013,05,05,11,45,21.90
2013,05,05,11,46,21.90
2013,05,05,11,47,21.90
2013,05,05,11,48,22.00
2013,05,05,11,49,22.00
2013,05,05,11,50,22.10
2013,05,05,11,51,22.10
2013,05,05,11,52,22.10
2013,05,05,11,53,22.20
2013,05,05,11,54,22.20
2013,05,05,11,55,22.20
2013,05,05,11,56,22.20
2013,05,05,11,57,22.30
2013,05,05,11,58,22.30
2013,05,05,11,59,22.40
2013,05,05,12,00,22.40
2013,05,05,12,01,22.50
2013,05,05,12,02,22.50
2013,05,05,12,03,22.60
2013,05,05,12,04,22.60
2013,05,05,12,05,22.60
2013,05,05,12,06,22.70
2013,05,05,12,07,22.80
2013,05,05,12,08,22.80
2013,05,05,12,09,22.90
2013,05,05,12,10,22.90
2013,05,05,12,11,22.90
2013,05,05,12,12,23.00
2013,05,05,12,13,22.90
2013,05,05,12,14,22.90
2013,05,05,12,15,22.90
2013,05,05,12,16,22.90
2013,05,05,12,17,23.00
2013,05,05,12,18,23.00
2013,05,05,12,19,23.10
2013,05,05,12,20,23.10
2013,05,05,12,21,23.10
2013,05,05,12,22,23.10
2013,05,05,12,23,23.10
2013,05,05,12,24,23.10
2013,05,05,12,25,23.10
2013,05,05,12,26,23.10
2013,05,05,12,27,23.10
2013,05,05,12,28,23.10
2013,05,05,12,29,23.20
2013,05,05,12,30,23.20
2013,05,05,12,31,23.20
2013,05,05,12,32,23.20
2013,05,05,12,33,23.30
2013,05,05,12,34,23.30
2013,05,05,12,35,23.30
2013,05,05,12,36,23.30
2013,05,05,12,37,23.20
2013,05,05,12,38,23.20
2013,05,05,12,39,23.20
2013,05,05,12,40,23.20
2013,05,05,12,41,23.30
2013,05,05,12,42,23.30
2013,05,05,12,43,23.40
2013,05,05,12,44,23.40
2013,05,05,12,45,23.40
2013,05,05,12,46,23.40
2013,05,05,12,47,23.50
2013,05,05,12,48,23.50
2013,05,05,12,49,23.60
2013,05,05,12,50,23.70
2013,05,05,12,51,23.70
2013,05,05,12,52,23.80
2013,05,05,12,53,23.80
2013,05,05,12,54,23.80
2013,05,05,12,55,23.80
2013,05,05,12,56,23.80
2013,05,05,12,57,23.90
2013,05,05,12,58,23.90
2013,05,05,12,59,23.90
2013,05,05,13,00,23.90
2013,05,05,13,01,23.90
2013,05,05,13,02,23.90
2013,05,05,13,03,23.90
2013,05,05,13,04,23.80
2013,05,05,13,05,23.80
2013,05,05,13,06,23.90
2013,05,05,13,07,23.90
2013,05,05,13,08,24.00
2013,05,05,13,09,24.10
2013,05,05,13,10,24.10
2013,05,05,13,11,24.20
2013,05,05,13,12,24.30
2013,05,05,13,13,24.30
2013,05,05,13,14,24.40
2013,05,05,13,15,24.40
2013,05,05,13,16,24.40
2013,05,05,13,17,24.40
2013,05,05,13,18,24.50
2013,05,05,13,19,24.50
2013,05,05,13,20,24.40
2013,05,05,13,21,24.30
2013,05,05,13,22,24.20
2013,05,05,13,23,24.10
2013,05,05,13,24,24.10
2013,05,05,13,25,24.00
2013,05,05,13,26,24.00
2013,05,05,13,27,24.10
2013,05,05,13,28,24.10
2013,05,05,13,29,24.20
2013,05,05,13,30,24.20
2013,05,05,13,31,24.30
2013,05,05,13,32,24.30
2013,05,05,13,33,24.20
2013,05,05,13,34,24.20
2013,05,05,13,35,24.10
2013,05,05,13,36,24.10
2013,05,05,13,37,24.10
2013,05,05,13,38,24.10
2013,05,05,13,39,24.10
2013,05,05,13,40,24.10
2013,05,05,13,41,24.10
2013,05,05,13,42,24.10
2013,05,05,13,43,24.10
2013,05,05,13,44,24.10
2013,05,05,13,45,24.20
2013,05,05,13,46,24.30
2013,05,05,13,47,24.40
2013,05,05,13,48,24.40
2013,05,05,13,49,24.40
2013,05,05,13,50,24.50
2013,05,05,13,51,24.50
2013,05,05,13,52,24.50
2013,05,05,13,53,24.50
2013,05,05,13,54,24.40
2013,05,05,13,55,24.40
2013,05,05,13,56,24.40
2013,05,05,13,57,24.50
2013,05,05,13,58,24.60
2013,05,05,13,59,24.60
2013,05,05,14,00,24.70
2013,05,05,14,01,24.70
2013,05,05,14,02,24.70
2013,05,05,14,03,24.80
2013,05,05,14,04,24.80
2013,05,05,14,05,24.80
2013,05,05,14,06,24.90
2013,05,05,14,07,24.90
2013,05,05,14,08,25.00
2013,05,05,14,09,25.10
2013,05,05,14,10,25.10
2013,05,05,14,11,25.20
2013,05,05,14,12,25.20
2013,05,05,14,13,25.20
2013,05,05,14,14,25.30
2013,05,05,14,15,25.30
2013,05,05,14,16,25.40
2013,05,05,14,17,25.40
2013,05,05,14,18,25.40
2013,05,05,14,19,25.30
2013,05,05,14,20,25.30
2013,05,05,14,21,25.30
2013,05,05,14,22,25.30
2013,05,05,14,23,25.30
2013,05,05,14,24,25.30
2013,05,05,14,25,25.30
2013,05,05,14,26,25.30
2013,05,05,14,27,25.40
2013,05,05,14,28,25.40
2013,05,05,14,29,25.50
2013,05,05,14,30,25.50
2013,05,05,14,31,25.50
2013,05,05,14,32,25.50
2013,05,05,14,33,25.40
2013,05,05,14,34,25.40
2013,05,05,14,35,25.40
2013,05,05,14,36,25.40
2013,05,05,14,37,25.40
2013,05,05,14,38,25.40
2013,05,05,14,39,25.50
2013,05,05,14,40,25.60
2013,05,05,14,41,25.60
2013,05,05,14,42,25.70
2013,05,05,14,43,25.60
2013,05,05,14,44,25.60
2013,05,05,14,45,25.60
2013,05,05,14,46,25.60
2013,05,05,14,47,25.60
2013,05,05,14,48,25.60
2013,05,05,14,49,25.60
2013,05,05,14,50,25.70
2013,05,05,14,51,25.70
2013,05,05,14,52,25.70
2013,05,05,14,53,25.70
2013,05,05,14,54,25.70
2013,05,05,14,55,25.80
2013,05,05,14,56,25.80
2013,05,05,14,57,25.90
2013,05,05,14,58,25.90
2013,05,05,14,59,26.00
2013,05,05,15,00,26.00
2013,05,05,15,01,26.00
2013,05,05,15,02,26.00
2013,05,05,15,03,26.00
2013,05,05,15,04,26.10
2013,05,05,15,05,26.10
2013,05,05,15,06,26.20
2013,05,05,15,07,26.20
2013,05,05,15,08,26.30
2013,05,05,15,09,26.30
2013,05,05,15,10,26.30
2013,05,05,15,11,26.20
2013,05,05,15,12,26.20
2013,05,05,15,13,26.00
2013,05,05,15,14,25.90
2013,05,05,15,15,25.90
2013,05,05,15,16,25.90
2013,05,05,15,17,26.00
2013,05,05,15,18,26.00
2013,05,05,15,19,26.00
2013,05,05,15,20,26.00
2013,05,05,15,21,26.00
2013,05,05,15,22,26.00
2013,05,05,15,23,26.00
2013,05,05,15,24,25.90
2013,05,05,15,25,25.90
2013,05,05,15,26,25.90
2013,05,05,15,27,26.00
2013,05,05,15,28,26.00
2013,05,05,15,29,26.00
2013,05,05,15,30,25.90
2013,05,05,15,31,25.90
2013,05,05,15,32,25.90
2013,05,05,15,33,26.00
2013,05,05,15,34,26.00
2013,05,05,15,35,26.10
2013,05,05,15,36,26.10
2013,05,05,15,37,26.10
2013,05,05,15,38,26.10
2013,05,05,15,39,26.10
2013,05,05,15,40,26.00
2013,05,05,15,41,26.00
2013,05,05,15,42,26.10
2013,05,05,15,43,26.10
2013,05,05,15,44,26.00
2013,05,05,15,45,26.00
2013,05,05,15,46,26.00
2013,05,05,15,47,26.10
2013,05,05,15,48,26.10
2013,05,05,15,49,26.20
2013,05,05,15,50,26.20
2013,05,05,15,51,26.20
2013,05,05,15,52,26.20
2013,05,05,15,53,26.20
2013,05,05,15,54,26.20
2013,05,05,15,55,26.20
2013,05,05,15,56,26.30
2013,05,05,15,57,26.30
2013,05,05,15,58,26.40
2013,05,05,15,59,26.40
2013,05,05,16,00,26.50
2013,05,05,16,01,26.60
2013,05,05,16,02,26.60
2013,05,05,16,03,26.60
2013,05,05,16,04,26.60
2013,05,05,16,05,26.70
2013,05,05,16,06,26.70
2013,05,05,16,07,26.70
2013,05,05,16,08,26.60
2013,05,05,16,09,26.60
2013,05,05,16,10,26.50
2013,05,05,16,11,26.50
2013,05,05,16,12,26.50
2013,05,05,16,13,26.40
2013,05,05,16,14,26.40
2013,05,05,16,15,26.40
2013,05,05,16,16,26.40
2013,05,05,16,17,26.50
2013,05,05,16,18,26.50
2013,05,05,16,19,26.60
2013,05,05,16,20,26.60
2013,05,05,16,21,26.60
2013,05,05,16,22,26.70
2013,05,05,16,23,26.80
2013,05,05,16,24,26.90
2013,05,05,16,25,26.90
2013,05,05,16,26,26.90
2013,05,05,16,27,26.90
2013,05,05,16,28,26.80
2013,05,05,16,29,26.80
2013,05,05,16,30,26.80
2013,05,05,16,31,26.70
2013,05,05,16,32,26.60
2013,05,05,16,33,26.60
2013,05,05,16,34,26.50
2013,05,05,16,35,26.50
2013,05,05,16,36,26.40
2013,05,05,16,37,26.40
2013,05,05,16,38,26.40
2013,05,05,16,39,26.40
2013,05,05,16,40,26.40
2013,05,05,16,41,26.40
2013,05,05,16,42,26.40
2013,05,05,16,43,26.50
2013,05,05,16,44,26.50
2013,05,05,16,45,26.60
2013,05,05,16,46,26.80
2013,05,05,16,47,26.90
2013,05,05,16,48,27.10
2013,05,05,16,49,27.30
2013,05,05,16,50,27.40
2013,05,05,16,51,27.50
2013,05,05,16,52,27.60
2013,05,05,16,53,27.70
2013,05,05,16,54,27.70
2013,05,05,16,55,27.80
2013,05,05,16,56,27.90
2013,05,05,16,57,27.90
2013,05,05,16,58,27.80
2013,05,05,16,59,27.80
2013,05,05,17,00,27.80
2013,05,05,17,01,27.80
2013,05,05,17,02,27.70
2013,05,05,17,03,27.50
2013,05,05,17,04,27.40
2013,05,05,17,05,27.30
2013,05,05,17,06,27.30
2013,05,05,17,07,27.30
2013,05,05,17,08,27.30
2013,05,05,17,09,27.30
2013,05,05,17,10,27.30
2013,05,05,17,11,27.30
2013,05,05,17,12,27.30
2013,05,05,17,13,27.30
2013,05,05,17,14,27.40
2013,05,05,17,15,27.50
2013,05,05,17,16,27.60
2013,05,05,17,17,27.70
2013,05,05,17,18,27.70
2013,05,05,17,19,27.70
2013,05,05,17,20,27.60
2013,05,05,17,21,27.40
2013,05,05,17,22,27.30
2013,05,05,17,23,27.20
2013,05,05,17,24,27.20
2013,05,05,17,25,27.10
2013,05,05,17,26,27.10